Estación municipal de St. Hilari Sacalm (La Selva, Guilleries)

Consulta los datos en tiempo real de la estación municipal de St. Hilari Sacalm





Hora UTC 10:40
Temperatura 25.6 ºC
Humedad 51.1 %
Presión 1022.4 hPa
Pluja 0.0 mm
Velocidad viento 9.3 km/h
Dirección viento SSE
Radiación solar 761.2 W/m²

Webcam

Datos diarios 2026-08-31



Hora UTC (invierno +1h; verano +2h)
Temperatura (ºC) Humedad (%) Presión (hPa) Velocidad viento (km/h) Precipitación (mm) Radiación solar (W/m²)
Hora UTC Aire Humedad Presión Vel. Dir. Vel. Max Dir. Intent. máx 5 min. Rad. Sol.
00:05 20.9 49.6 1020.3 3.6 WNW 3.6 NW 0.0 0.1
00:10 20.9 49.9 1020.3 2.7 WNW 8.8 NW 0.0 0.1
00:15 20.8 50.7 1020.3 0.8 WNW 8.8 WNW 0.0 0.1
00:20 20.5 52.6 1020.3 0.2 WSW 11.5 WSW 0.0 0.1
00:25 19.8 55.2 1020.4 0.1 SSE 6.1 S 0.0 0.1
00:30 19.3 56.6 1020.4 0.0 NNE 0.0 S 0.0 0.1
00:35 19.1 57.8 1020.4 0.0 NNE 0.0 NNE 0.0 0.1
00:40 19.0 58.1 1020.4 0.0 NNE 0.0 NW 0.0 0.1
00:45 19.0 58.1 1020.3 0.0 NNE 0.0 SSW 0.0 0.1
00:50 18.9 59.1 1020.3 0.1 S 3.4 S 0.0 0.1
00:55 18.7 59.5 1020.4 0.0 NNE 0.0 SE 0.0 0.1
01:00 18.7 60.1 1020.4 0.0 NNE 0.0 E 0.0 0.1
01:05 18.6 60.5 1020.4 0.0 NNE 0.0 SE 0.0 0.1
01:10 18.5 60.6 1020.4 0.0 NNE 0.0 SSE 0.0 0.1
01:15 18.4 61.4 1020.4 0.0 NNE 0.0 SW 0.0 0.1
01:20 18.4 63.1 1020.5 0.0 NNE 0.0 S 0.0 0.1
01:25 18.5 63.8 1020.5 0.0 NNE 0.0 S 0.0 0.1
01:30 18.8 62.9 1020.5 0.0 NNE 0.0 S 0.0 0.1
01:35 19.0 62.3 1020.5 1.3 SE 6.1 SE 0.0 0.1
01:40 19.3 61.4 1020.5 0.2 SSE 6.1 SSE 0.0 0.1
01:45 19.4 61.0 1020.5 0.0 NNE 0.0 SE 0.0 0.1
01:50 19.4 61.4 1020.6 0.0 NNE 0.0 S 0.0 0.1
01:55 19.2 61.9 1020.6 0.0 NNE 0.0 S 0.0 0.1
02:00 18.9 62.3 1020.6 0.0 NNE 0.0 S 0.0 0.1
02:05 18.8 62.7 1020.6 0.0 NNE 0.0 SW 0.0 0.1
02:10 18.6 63.9 1020.6 0.0 NNE 0.0 SW 0.0 0.1
02:15 18.5 64.9 1020.6 0.0 NNE 0.0 SSW 0.0 0.1
02:20 18.6 64.6 1020.6 0.0 NNE 0.0 SSW 0.0 0.1
02:25 18.4 65.5 1020.6 0.0 NNE 0.0 SSW 0.0 0.1
02:30 18.1 66.1 1020.6 0.0 NNE 0.0 SW 0.0 0.1
02:35 18.0 66.9 1020.6 0.0 NNE 0.0 SW 0.0 0.1
02:40 18.0 67.1 1020.5 0.0 NNE 0.0 SW 0.0 0.1
02:45 17.9 68.0 1020.6 0.0 NNE 0.0 SW 0.0 0.1
02:50 17.9 67.9 1020.6 0.0 NNE 0.0 SSW 0.0 0.1
02:55 17.8 68.4 1020.6 0.0 NNE 0.0 SSW 0.0 0.1
03:00 17.6 69.4 1020.6 0.0 NNE 0.0 SSW 0.0 0.1
03:05 17.5 69.4 1020.6 0.8 W 6.1 W 0.0 0.1
03:10 17.4 69.8 1020.5 0.0 NNE 0.0 W 0.0 0.1
03:15 17.3 70.4 1020.6 0.0 NNE 0.0 NW 0.0 0.1
03:20 17.2 70.7 1020.5 0.0 NNE 0.0 SSE 0.0 0.1
03:25 17.5 70.0 1020.5 0.0 NNE 0.0 SSE 0.0 0.1
03:30 17.5 69.6 1020.6 0.0 NNE 0.0 SSW 0.0 0.1
03:35 17.4 70.2 1020.6 0.0 NNE 0.0 SW 0.0 0.1
03:40 17.5 70.5 1020.6 0.0 NNE 0.0 SSW 0.0 0.1
03:45 17.6 70.8 1020.6 0.0 NNE 0.0 SW 0.0 0.1
03:50 17.6 71.3 1020.6 0.0 NNE 0.0 SW 0.0 0.1
03:55 17.5 71.2 1020.6 0.0 NNE 0.0 SSW 0.0 0.1
04:00 17.3 72.4 1020.6 0.0 NNE 0.0 SW 0.0 0.1
04:05 17.2 73.3 1020.6 0.0 NNE 0.0 SW 0.0 0.1
04:10 17.1 74.2 1020.6 0.0 NNE 0.0 W 0.0 0.1
04:15 17.0 74.8 1020.6 0.0 NNE 0.0 SSW 0.0 0.1
04:20 16.9 74.4 1020.5 0.0 NNE 0.0 SSW 0.0 0.1
04:25 16.9 74.6 1020.5 0.0 NNE 0.0 SSW 0.0 0.2
04:30 16.9 75.0 1020.5 0.0 NNE 0.0 SSW 0.0 0.1
04:35 16.9 75.1 1020.6 0.0 NNE 0.0 SSW 0.0 0.1
04:40 17.0 75.1 1020.5 0.0 NNE 0.0 SSW 0.0 0.1
04:45 17.0 75.6 1020.5 0.0 NNE 0.0 SW 0.0 0.1
04:50 17.0 75.9 1020.6 0.0 NNE 0.0 SW 0.0 0.1
04:55 17.1 75.8 1020.5 0.0 NNE 0.0 SSW 0.0 0.2
05:00 17.1 75.7 1020.6 0.0 NNE 0.0 SSW 0.0 0.5
05:05 17.0 76.2 1020.5 0.0 NNE 0.0 SW 0.0 1.0
05:10 16.9 76.7 1020.6 0.0 NNE 0.0 SW 0.0 1.9
05:15 16.9 77.0 1020.6 0.0 NNE 0.0 SSW 0.0 3.2
05:20 16.8 77.4 1020.6 0.0 NNE 0.0 SSW 0.0 5.1
05:25 16.7 77.4 1020.7 0.0 NNE 0.0 SSW 0.0 7.6
05:30 16.7 77.8 1020.7 0.0 NNE 0.0 SSW 0.0 10.2
05:35 16.7 77.9 1020.8 0.0 NNE 0.0 S 0.0 13.4
05:40 16.7 77.8 1020.9 0.0 NNE 0.0 SSW 0.0 36.8
05:45 16.8 77.8 1020.9 0.0 NNE 0.0 SSW 0.0 51.5
05:50 17.2 76.5 1021.0 0.0 NNE 0.0 SSW 0.0 70.2
05:55 17.6 74.1 1020.9 0.0 NNE 0.0 ESE 0.0 83.6
06:00 18.6 69.0 1021.0 0.0 NNE 0.0 SE 0.0 97.3
06:05 19.3 66.7 1021.0 0.0 NNE 0.0 SE 0.0 110.5
06:10 19.6 65.2 1021.0 0.0 NNE 0.0 SE 0.0 124.1
06:15 20.2 61.7 1021.1 0.0 NNE 0.0 SE 0.0 138.2
06:20 20.9 57.7 1021.1 0.0 NNE 0.0 S 0.0 152.4
06:25 21.5 54.2 1021.1 0.0 NNE 0.0 ESE 0.0 167.1
06:30 21.9 52.4 1021.2 0.0 NNE 0.0 SE 0.0 181.8
06:35 22.0 51.1 1021.2 2.1 SE 8.8 ESE 0.0 196.3
06:40 22.1 50.6 1021.3 3.6 SE 8.8 SSE 0.0 211.7
06:45 22.3 49.9 1021.4 4.3 ESE 8.8 ESE 0.0 227.1
06:50 22.5 49.0 1021.4 0.8 ESE 8.8 ESE 0.0 242.6
06:55 22.6 48.5 1021.5 2.9 SE 8.8 SSE 0.0 258.0
07:00 22.5 49.1 1021.5 4.9 SE 14.2 ESE 0.0 273.1
07:05 22.5 49.6 1021.5 1.0 ESE 6.1 ESE 0.0 287.8
07:10 22.6 50.3 1021.5 4.4 SE 11.5 SE 0.0 302.5
07:15 22.6 52.2 1021.6 5.8 SE 14.2 ESE 0.0 317.9
07:20 22.5 54.1 1021.6 6.3 SE 11.5 SE 0.0 333.4
07:25 22.5 53.4 1021.7 7.7 SE 14.2 SE 0.0 348.1
07:30 22.6 52.6 1021.7 6.6 SSE 14.2 SSE 0.0 362.8
07:35 23.0 51.2 1021.7 6.4 SE 14.2 S 0.0 377.5
07:40 22.7 52.0 1021.7 7.2 SE 19.6 SE 0.0 392.4
07:45 22.7 53.0 1021.7 8.8 SE 16.9 ESE 0.0 406.4
07:50 22.8 54.1 1021.7 6.3 ESE 16.9 ESE 0.0 420.2
07:55 22.7 54.1 1021.7 9.5 SSE 19.6 ESE 0.0 395.5
08:00 22.3 56.2 1021.7 11.1 SE 16.9 SE 0.0 449.5
08:05 22.3 53.7 1021.8 8.6 SE 22.3 SE 0.0 464.3
08:10 22.6 54.1 1021.8 7.2 SE 19.6 SE 0.0 478.7
08:15 22.7 56.7 1021.9 9.0 SSE 19.6 S 0.0 493.5
08:20 22.6 56.8 1021.9 10.8 SE 19.6 S 0.0 507.3
08:25 22.4 57.2 1022.0 10.2 SE 25.0 SSE 0.0 520.1
08:30 22.7 56.9 1022.0 8.2 SE 22.3 SSE 0.0 533.0
08:35 23.0 57.1 1022.1 8.0 SE 16.9 ESE 0.0 545.7
08:40 23.0 58.1 1022.1 9.1 SE 19.6 ESE 0.0 557.4
08:45 23.2 58.2 1022.2 8.6 SSE 19.6 SE 0.0 569.2
08:50 23.3 58.3 1022.3 9.6 S 19.6 S 0.0 580.3
08:55 23.3 58.7 1022.3 10.6 ESE 19.6 E 0.0 592.2
09:00 23.2 58.9 1022.3 7.3 ESE 14.2 ESE 0.0 603.8
09:05 23.4 57.6 1022.2 8.8 SE 16.9 S 0.0 614.8
09:10 23.6 55.8 1022.3 9.5 SSE 19.6 S 0.0 625.4
09:15 23.7 56.2 1022.3 5.9 SSE 14.2 SSE 0.0 635.5
09:20 23.9 55.1 1022.4 6.9 SSE 14.2 E 0.0 647.0
09:25 24.0 55.2 1022.4 5.0 SE 11.5 ESE 0.0 657.9
09:30 24.2 54.3 1022.4 7.7 S 14.2 SE 0.0 667.9
09:35 24.5 53.3 1022.4 4.4 SSE 14.2 SE 0.0 676.4
09:40 24.5 52.8 1022.5 6.3 SSE 14.2 S 0.0 686.0
09:45 24.4 53.4 1022.4 8.2 SE 19.6 SE 0.0 694.8
09:50 24.3 53.7 1022.4 4.6 SSE 11.5 SE 0.0 700.2
09:55 24.7 52.6 1022.4 6.0 S 14.2 SSW 0.0 710.0
10:00 24.5 49.4 1022.4 1.4 SE 11.5 SSE 0.0 716.8
10:05 24.9 51.2 1022.4 1.1 SE 8.8 SSW 0.0 723.8
10:10 25.4 50.0 1022.4 6.2 SE 14.2 SSE 0.0 731.9
10:15 25.3 49.2 1022.4 6.8 SE 11.5 ESE 0.0 739.3
10:20 25.6 50.0 1022.4 6.5 SE 16.9 SE 0.0 744.7
10:25 25.6 49.7 1022.4 7.7 SSE 16.9 SE 0.0 750.4
10:30 26.5 46.7 1022.4 3.7 SE 11.5 SE 0.0 753.2
10:35 26.0 49.8 1022.4 7.9 SSE 19.6 SSE 0.0 759.0
10:40 25.6 51.1 1022.4 9.3 SSE 16.9 ESE 0.0 761.2
Máxima 26.5 77.9 1022.5 11.1 SE 25.0 SSE 0.0 761.2
Mínima 16.7 46.7 1020.3
Total 0.0